World > North America > United States > Missouri

Carl Junction, Missouri Regional Weather

Lat: 37.18N, Lon: 94.57W
Wx Zone: MOZ088Web Search

Pass this page to a friend. Tell them to point their camera at the QR Code near the bottom of this page.

Feedback


°F Click to change Carl Junction hourly weather to Imperial units.Click to change Carl Junction hourly weather to Metric units. °C
Carl Junction Weather Map
UTC Time: 4/11/2021, 16:37
Your Time:

Carl Junction, MO Regional Weather

Expires:202104111700;;391469
ASUS43 KEAX 111615
RWREAX

WEATHER ROUNDUP FOR EASTERN KANSAS AND NORTHWEST MISSOURI
NATIONAL WEATHER SERVICE KANSAS CITY/PLEASANT HILL MO
1100 AM CDT SUN APR 11 2021


MOZ041-047>049-056>058-063>065-088>090-097-111700-
...EASTERN AND SOUTHERN MISSOURI...
  
CITY           SKY/WX    TMP DP  RH WIND       PRES   REMARKS
ST. LOUIS INTL MOSUNNY   58  39  49 W22G30    29.56R                  
SPIRIT OF STL  SUNNY     59  32  36 W21G32    29.56R                  
COLUMBIA       SUNNY     57  38  48 W20G26    29.63R                  
JEFFERSON CITY SUNNY     59  36  42 NW16G22   29.64S                  
MEXICO         SUNNY     52  41  66 W17G29    29.61R                  
HANNIBAL       MOSUNNY   52  37  58 W15G24    29.57S                  
ROLLA          SUNNY     57  37  47 W22G30    29.66R                  
LEBANON        SUNNY     61  32  33 W17       29.70R                  
OSAGE BEACH    SUNNY     59  40  49 W8        29.68S                  
SPRINGFIELD    SUNNY     62  39  42 W15       29.70R                  
BRANSON        SUNNY     64  37  36 W9G16     29.74R                  
JOPLIN         SUNNY     65  39  38 SW12      29.71S                  
WEST PLAINS    SUNNY     64  37  36 W12G18    29.70S                  
SIKESTON       SUNNY     64  41  42 W20G29    29.64S                  

$$


SKY/WX - Weather  TMP - Temperature  DP - Dew Point  RH - Relative Humidity
WIND - Wind Direction/Speed PRES - Barometric Pressure VSB - Visibility
WCI - Wind Chill Index E13G22 Wind - East Wind 13 mph/Gusts of 22 mph